Location: ??????
(56.0120°N, 39.1740°E)
Time: 07:39:19
(UTC+00:00)

Cosmos 1725 Rocket - Pass Details

Date: 14 April 2026
Orbit: 960 x 990 km, 82.9° (Epoch: 12 May)

Event Time Altitude Azimuth Distance (km) Brightness Sun altitude
Exits shadow 21:33:53 52° 202° (SSW) 1,220 4.1 -24.3°
Maximum altitude 21:35:35 82° 282° (WNW) 1,007 4.0 -24.3°
Drops below altitude 10° 21:41:57 10° 11° (N) 2,760 7.4 -24.2°
Sets 21:44:29 0° 12° (NNE) 3,710 8.4 -24.2°
